Regional Weather Roundup
Issued by NWS Sioux Falls, SD

Home | Current Version | Previous Version | Text Only | Print | Product List | Glossary On
Versions: 1 2 3 4 5 6 7 8 9 10 11 12 13 14 15 16 17 18 19 20 21 22 23 24 25 26 27 28 29 30 31 32 33 34 35 36 37 38 39 40 41 42 43 44 45 46 47 48 49 50
629
ASUS43 KFSD 270510
RWRFSD

WEATHER ROUNDUP FOR SE SOUTH DAKOTA/SW MINNESOTA/NW IOWA
NATIONAL WEATHER SERVICE SIOUX FALLS SD
1200 AM CDT FRI MAY 27 2016

NOTE: "FAIR" INDICATES FEW OR NO CLOUDS BELOW 12,000 FEET WITH NO
SIGNIFICANT WEATHER AND OR OBSTRUCTIONS TO VISIBILITY.


SDZ038>040-050-052>070-270600-
SOUTHEAST SOUTH DAKOTA

CITY           SKY/WX    TMP DP  RH WIND       PRES   REMARKS
BROOKINGS      CLOUDY    63  53  70 SE7       29.82R
CHAMBERLAIN    CLOUDY    66  61  83 SW9       29.81R
HURON          CLOUDY    62  54  74 NE7       29.80S
MADISON        FAIR      64  57  77 S14G20    29.82S
MITCHELL       CLOUDY    64  59  83 E3        29.80R
SIOUX FALLS    CLOUDY    64  54  69 SW3       29.81R
WINNER         TSTM      61  56  83 E10       29.84R
YANKTON        CLOUDY    64  55  72 SE9       29.80R
$$

MNZ071-072-080-081-089-090-097-098-270600-
SOUTHWEST MINNESOTA

CITY           SKY/WX    TMP DP  RH WIND       PRES   REMARKS
FAIRMONT       CLOUDY    64  54  68 S10       29.84R
JACKSON        CLOUDY    64  54  68 S7        29.85R
LUVERNE        CLOUDY    63  54  72 CALM      29.83R
MARSHALL       CLOUDY    66  53  63 SW5       29.82R
MONTEVIDEO     CLOUDY    66  52  59 CALM      29.83R
PIPESTONE      CLOUDY    63  55  77 CALM      29.84S
REDWOOD FALLS  CLOUDY    67  55  65 CALM      29.82R
TRACY          CLOUDY    68  55  63 S5        29.84R
WINDOM         CLOUDY    66  55  68 CALM      29.85R
WORTHINGTON    CLOUDY    63  58  83 S5        29.86R
$$

IAZ001>003-012>014-020>022-031-032-NEZ013-014-SDZ071-270600-
NORTHWEST IOWA

CITY           SKY/WX    TMP DP  RH WIND       PRES   REMARKS
CHEROKEE       CLOUDY    61  57  87 NW6       29.82R
ESTHERVILLE    CLOUDY    62  56  80 SE6       29.83R
LE MARS        CLOUDY    63  57  82 S3        29.81R
ORANGE CITY    CLOUDY    61  57  88 SE3       29.82R
SHELDON        CLOUDY    63  57  82 CALM      29.82R
SIOUX CITY     CLOUDY    63  54  72 SW8       29.78F
SPENCER        CLOUDY    62  55  77 E3        29.83R
STORM LAKE     CLOUDY    61  54  77 NE8       29.80S
$$

ABBREVIATIONS USED IN REMARKS
   TC - TEMPERATURE IN CELSIUS
  WCI - WIND CHILL INDEX
   HX - HEAT INDEX
  VSB - VISIBILITY





USA.gov is the U.S. government's official web portal to all federal, state and local government web resources and services.